Location: B�rgermoos
(47.6500°N, 9.0667°E)
Time: 07:54:27
(UTC+00:00)

A-11 Canister half - Pass Details

Date: 08 August 2021
Orbit: 1526 x 1683 km, 47.3° (Epoch: 20 September)

Event Time Altitude Azimuth Distance (km) Brightness Sun altitude
Rises 07:36:27 0° 205° (SSW) 4,899 11.5 33.0°
Reaches altitude 10° 07:39:58 10° 197° (SSW) 3,925 11.2 33.6°
Maximum altitude 07:48:42 35° 136° (SE) 2,489 11.6 35.0°
Drops below altitude 10° 07:57:26 10° 76° (ENE) 3,936 12.1 36.4°
Sets 08:00:55 0° 69° (ENE) 4,914 12.3 37.0°
